Flag for Norway Weather past 2 weeks in Skien, Norway

Now
61 °F

Broken clouds.


Feels Like: 61 °F
Forecast: 46 / 69 °F
Wind: 2 mph from North

Location: Skien-Geiteryggen

Current Time: Sep 1, 2014 at 3:56:46 PM

Latest Report: Sep 1, 2014 at 2:50 PM


Visibility: N/A

Pressure: 30.21 "Hg

Humidity: 63%

Dew point: 48 °F

Location of SkienLocation

Historic Weather in Skien — Graph

°F

Skien temperature yesterday

Maximum temperature yesterday: 63 °F (at 4:50 PM)
Minimum temperature yesterday: 57 °F (at 12:50 PM)
Average temperature yesterday: 60 °F

Past Weeks' High & Low Weather Summary

 TemperatureHumidityPressure
High70 °F (Aug 27, 3:50 PM)100% (Aug 18, 5:50 AM)30.21 "Hg (Aug 18, 5:50 AM)
Low46 °F (Aug 22, 5:50 AM)40% (Aug 26, 4:50 PM)29.18 "Hg (Aug 18, 10:50 AM)
Average58 °F77%29.73 "Hg
* Reported Aug 17 2:50 PM — Sep 1 2:50 PM, Skien, Weather by CustomWeather, © 2014

Note: Actual official high and low records may vary slightly from our data, if they occured in-between our weather recording intervals... More about our weather records

Advertising

Skien weather history for previous 24 hours

 ConditionsComfort  
Time TempWeatherWind HumidityBarometerVisibility
2:50 PM
Sep 1
61 °FBroken clouds.2 mph63%30.21 "HgN/A
1:50 PM59 °FScattered clouds.2 mph72%30.21 "HgN/A
12:50 PM59 °FScattered clouds.5 mph77%30.21 "HgN/A
11:50 AM59 °FScattered clouds.2 mph72%30.21 "HgN/A
10:50 AM55 °FScattered clouds.3 mph94%30.21 "HgN/A
9:50 AM52 °FPassing clouds.5 mph100%30.21 "HgN/A
8:50 AM50 °FFog.3 mph100%30.21 "Hg1 mi
7:50 AM48 °FFog.6 mph100%30.21 "Hg0 mi
6:50 AM46 °FFog.5 mph100%30.18 "Hg0 mi
5:50 AM46 °FFog.3 mph100%30.18 "Hg0 mi
5:20 AM46 °FPassing clouds.2 mph100%30.18 "HgN/A
7:50 PM
Aug 31
59 °FSunny.6 mph68%30.15 "Hg10 mi
6:50 PM61 °FPartly sunny.7 mph63%30.15 "HgN/A
5:50 PM63 °FScattered clouds.7 mph59%30.12 "HgN/A
4:50 PM63 °FScattered clouds.6 mph59%30.12 "HgN/A
3:50 PM61 °FPartly sunny.8 mph68%30.12 "HgN/A
Weather by CustomWeather, © 2014

See weather overviewHow to use our weather pages